Theta_e
352 350 345 340 322 320 316 320 325 326 326 333 335 332 330 332 327 317 339 346 347 346 351 357 363 362 363 364 363 364 362 362 363 363 364 362 362 361 362 361 360 358 361 360 357 360 361 360 360
348 344 342 335 318 311 314 326 324 328 332 336 336 333 330 326 335 334 339 347 348 348 352 355 362 363 363 363 364 364 363 363 363 362 363 362 361 361 361 361 361 361 360 360 360 359 358 360 361
349 349 332 324 318 313 316 326 328 331 336 335 333 337 332 328 337 339 344 348 347 350 352 355 364 364 363 362 362 365 364 363 362 362 361 362 361 360 360 360 360 359 359 359 358 358 358 359 359
346 341 335 320 317 324 325 330 333 331 337 337 335 326 333 339 338 342 346 348 346 350 355 363 364 363 364 363 364 363 363 363 362 363 362 361 362 361 361 359 360 360 359 359 359 358 357 357 357
345 337 322 318 322 324 331 332 333 331 333 333 331 326 330 337 342 344 346 347 350 352 357 360 366 365 363 364 363 363 363 363 363 363 361 361 361 361 361 358 360 359 359 359 358 358 358 358 357
329 332 320 314 319 327 332 335 335 333 333 333 331 330 332 339 340 343 347 348 350 352 356 358 365 364 365 364 363 363 363 362 363 361 363 363 362 362 360 360 360 359 358 359 359 359 358 357 356
326 327 319 321 321 324 330 338 332 331 333 332 337 328 333 335 340 343 344 347 348 352 353 355 358 361 364 364 364 363 363 363 362 363 363 364 362 360 360 360 359 358 359 359 359 359 358 355 354
331 327 321 323 320 322 333 335 335 332 330 339 339 328 326 334 340 343 345 344 348 350 351 352 354 356 354 356 363 362 363 363 363 362 362 362 361 361 360 360 362 358 359 359 359 358 358 357 357
338 318 318 321 321 326 334 332 334 337 334 337 338 336 337 338 339 340 338 342 345 347 349 351 351 352 353 354 358 361 364 363 363 361 362 361 351 351 355 359 362 359 358 359 359 359 358 357 357
328 318 320 327 328 329 330 332 329 332 332 333 336 339 340 339 337 334 334 336 339 341 345 348 348 352 353 356 354 354 356 355 354 354 354 353 350 350 353 358 362 359 358 359 360 352 348 348 345
324 318 324 327 331 334 329 330 336 332 328 333 333 335 336 337 336 334 335 336 337 340 343 345 349 352 348 352 354 354 353 352 351 351 351 353 352 347 347 349 350 348 356 349 355 344 341 343 345
319 324 325 328 335 335 332 335 330 332 332 340 339 338 336 335 334 333 335 336 334 337 342 346 348 349 349 352 352 351 351 352 347 343 347 349 348 347 347 350 345 344 348 345 349 342 341 345 347
319 321 325 330 332 336 335 333 331 331 335 340 340 338 334 334 334 334 336 336 335 342 345 348 347 348 348 351 349 345 346 351 349 350 347 347 349 350 350 350 348 348 350 349 347 344 342 346 349
320 320 320 324 333 335 331 331 333 334 334 335 338 335 335 334 334 335 336 336 339 343 345 346 342 339 344 351 347 345 346 349 350 348 346 347 350 353 349 346 350 349 346 346 345 348 345 346 348
316 310 314 317 326 330 332 323 326 336 337 336 334 334 334 334 335 334 336 334 335 345 346 345 344 344 346 350 348 348 349 352 349 348 349 352 349 353 353 347 347 344 348 350 349 346 346 345 344
309 306 301 313 321 329 328 318 330 337 336 333 333 334 335 334 334 336 338 336 340 345 345 348 350 346 349 352 349 348 348 348 350 352 355 356 354 352 351 349 349 345 350 344 339 337 343 341 339
305 296 301 306 315 327 325 322 331 337 335 332 332 334 335 334 335 337 339 336 338 340 344 344 345 347 348 351 344 343 347 347 350 353 356 354 354 352 348 348 352 346 348 345 343 341 341 341 338
299 298 300 302 311 324 323 323 328 330 332 333 333 334 333 333 334 338 337 337 341 340 340 344 347 347 345 350 348 347 350 347 351 354 355 355 353 349 343 346 351 346 344 341 344 343 341 343 337
305 304 302 304 310 318 322 324 327 327 331 333 333 332 333 333 338 338 337 338 342 340 339 342 346 347 351 349 346 345 342 344 347 352 358 356 357 354 350 348 350 346 343 338 347 340 339 339 340
305 302 302 307 309 308 319 321 323 328 327 332 329 331 332 334 336 336 334 337 341 340 340 344 348 347 349 347 347 347 346 343 346 352 356 355 354 353 348 348 351 348 347 349 346 346 341 342 337
303 300 302 302 306 311 318 314 317 324 329 330 333 332 333 333 332 334 333 335 338 341 343 345 349 347 349 346 346 350 346 347 343 346 351 355 357 356 357 354 354 349 349 347 346 346 345 336 337
296 305 306 304 300 294 316 303 313 318 324 329 327 327 329 333 334 334 333 334 336 339 344 346 349 348 348 348 343 345 342 341 343 346 351 354 354 356 357 353 353 352 352 350 348 351 346 338 338
301 307 304 304 298 296 299 294 308 319 318 321 328 324 326 329 334 334 334 335 337 341 342 347 349 348 347 349 344 344 342 347 345 349 352 352 356 356 356 355 355 351 349 348 349 350 348 347 343
308 303 301 300 296 290 296 294 296 314 318 319 320 322 326 329 335 335 336 337 338 341 342 346 349 346 346 347 349 342 342 343 345 345 346 354 354 356 358 356 355 353 352 352 350 352 349 347 349
302 295 287 287 289 289 295 293 295 319 324 322 321 323 329 337 334 335 335 336 336 339 340 344 346 347 346 346 346 349 343 343 343 346 352 351 351 351 354 354 356 356 354 352 352 352 351 351 348
298 295 289 284 286 290 297 290 296 307 328 325 325 329 334 333 329 336 336 336 337 339 340 343 343 346 348 345 344 347 348 343 345 348 347 352 352 351 355 355 355 353 356 355 354 351 351 352 349
298 294 298 291 295 289 294 298 304 307 314 324 325 329 328 331 335 334 338 337 338 339 340 342 343 344 349 348 344 346 351 343 343 345 346 345 348 352 353 358 355 357 356 356 355 350 352 352 352
300 301 292 292 285 285 292 294 296 302 305 321 324 324 330 334 336 337 338 339 339 340 341 343 345 344 348 349 348 344 347 351 344 344 345 346 345 348 354 358 356 358 355 354 356 350 353 351 352
295 293 294 293 292 287 287 292 303 306 310 320 323 325 331 330 334 336 337 340 338 341 341 342 346 346 346 347 350 346 344 350 348 344 341 347 345 355 357 358 356 357 356 356 354 351 353 351 352
297 292 291 287 288 292 292 295 309 310 313 319 324 326 331 333 334 337 336 338 336 338 341 342 345 347 349 349 348 349 346 346 348 345 343 340 347 349 356 358 356 355 353 355 354 353 353 351 352
Wind_Speed
9 7 4 2 1 2 5 3 2 7 7 4 15 13 8 10 2 3 15 13 17 15 11 9 11 12 12 14 14 14 14 13 12 13 12 12 12 12 13 13 13 13 13 12 14 13 14 12 12
7 8 3 2 1 2 3 4 9 7 12 18 17 15 11 6 10 14 14 17 18 15 11 9 11 13 13 14 13 13 13 13 11 12 11 11 12 12 13 12 13 14 13 14 13 12 12 13 13
9 7 1 1 3 3 2 11 5 13 16 8 7 8 6 6 19 11 15 19 18 15 12 11 13 12 14 13 13 12 12 13 12 12 11 12 12 12 13 11 13 13 12 12 12 11 12 11 12
5 1 1 2 9 5 2 12 10 2 13 13 15 12 9 12 12 12 20 20 17 15 14 13 15 14 13 13 13 13 13 12 12 12 11 11 11 11 12 13 12 12 12 11 10 10 10 10 11
6 2 2 3 8 2 3 11 13 9 9 14 23 15 10 11 20 23 19 17 20 15 13 12 14 15 15 14 13 14 13 12 12 12 11 11 11 12 12 12 12 12 11 10 10 10 9 9 10
1 2 3 1 7 2 6 7 8 13 13 19 22 14 6 18 21 17 18 18 20 17 13 11 15 16 14 15 13 13 12 12 12 12 12 12 12 12 12 12 12 12 11 10 11 10 9 7 6
3 3 4 3 8 1 6 12 7 9 11 12 11 12 11 17 17 17 12 20 19 16 14 10 8 13 15 14 14 13 12 13 12 13 12 12 13 12 12 12 11 11 11 10 9 8 7 5 4
4 3 4 3 3 3 7 3 7 4 5 8 14 8 17 16 17 17 17 20 19 16 13 11 8 7 6 6 14 13 12 12 12 13 12 12 12 13 12 9 9 11 11 11 9 7 6 4 6
15 2 5 7 5 3 1 3 7 10 11 5 7 11 22 20 14 20 20 20 17 14 13 13 11 8 7 6 9 12 13 12 12 11 11 8 3 6 7 9 9 10 9 10 10 7 7 7 7
13 4 8 5 4 7 7 12 10 10 11 6 11 20 18 19 12 20 19 18 17 17 16 15 13 11 10 8 6 5 5 4 5 5 5 3 4 3 7 7 8 12 7 8 9 6 5 6 4
13 14 15 17 7 14 17 15 11 9 11 7 20 23 21 15 15 16 20 19 19 19 15 16 15 13 8 9 5 3 2 3 4 6 4 4 3 4 4 2 3 3 6 3 5 3 3 2 0
16 18 20 21 12 14 17 5 4 2 6 5 20 26 23 19 17 15 19 17 18 18 16 16 12 10 9 6 6 5 4 4 3 4 4 2 3 3 3 3 5 3 2 1 3 2 3 2 2
15 17 19 5 13 22 15 12 11 8 7 7 16 21 22 16 14 17 18 14 12 20 19 12 11 13 7 4 5 4 4 3 4 5 6 3 2 3 4 3 3 4 3 4 3 3 4 3 1
15 17 16 11 12 20 18 9 7 9 14 10 20 22 20 16 15 14 19 15 21 19 17 13 11 10 8 4 5 4 4 5 6 4 5 3 1 1 5 4 4 3 3 4 4 8 7 5 3
13 12 14 7 8 8 12 5 4 13 14 20 19 19 19 15 15 13 10 15 15 17 17 12 10 8 8 5 4 4 4 4 5 5 6 6 3 2 5 4 2 3 2 5 1 6 6 4 3
10 7 6 10 7 7 9 7 19 17 13 17 20 17 18 18 18 14 12 13 20 19 17 15 13 10 8 7 6 3 4 4 5 7 4 6 5 7 5 3 1 2 1 2 3 3 4 5 3
7 6 8 13 13 6 8 12 17 24 17 16 21 21 18 15 18 16 15 15 18 19 18 14 12 12 8 7 5 5 6 4 3 5 5 6 7 6 6 3 2 4 2 4 3 3 1 2 2
9 8 8 12 17 15 15 14 18 18 19 13 18 22 22 18 20 16 17 15 19 18 17 14 13 11 9 5 3 4 3 3 4 4 5 6 5 5 6 2 3 3 3 1 1 2 1 3 3
16 15 13 12 16 17 19 21 21 22 24 19 14 17 22 20 19 15 16 17 19 17 14 12 14 11 7 3 3 2 4 3 2 3 7 7 6 6 5 2 2 4 6 5 1 2 1 0 1
19 16 17 15 13 8 20 18 16 21 22 19 11 24 26 20 18 15 15 17 19 18 15 11 14 13 8 4 3 3 4 3 4 4 3 5 10 6 5 5 5 5 3 3 3 3 1 3 1
16 11 13 11 16 9 13 6 6 11 15 17 5 6 12 24 19 14 15 20 18 19 17 13 15 13 11 8 3 1 2 3 3 2 3 4 8 7 7 6 4 4 3 3 1 1 4 1 2
10 10 12 13 8 3 5 4 7 7 6 12 13 4 10 16 22 15 15 18 20 19 17 15 16 14 10 12 6 5 4 4 4 5 4 5 7 7 7 6 5 4 2 4 2 1 2 3 1
13 10 10 10 6 7 13 1 9 15 7 9 12 12 22 15 25 23 21 18 20 19 18 16 16 15 14 10 9 6 4 4 4 6 9 6 5 7 8 7 7 4 3 3 3 2 3 2 2
12 10 11 6 4 7 11 4 1 13 19 16 22 26 29 18 24 26 22 17 17 18 18 17 17 17 14 12 8 9 9 6 5 5 5 7 4 5 7 7 6 6 4 4 3 3 3 2 1
7 2 3 4 5 9 7 5 9 16 19 25 30 22 20 18 17 24 23 19 17 21 20 19 20 18 18 14 11 8 9 8 7 7 8 9 5 3 6 7 6 5 5 5 3 3 2 2 1
7 9 7 9 7 7 8 7 8 11 25 26 26 20 24 18 5 19 24 21 19 22 22 20 20 20 19 18 15 9 8 7 5 5 5 9 8 8 7 7 7 7 7 6 5 2 3 3 3
6 5 9 4 12 4 6 8 10 12 12 26 21 17 10 9 7 9 10 22 21 19 23 23 21 20 19 19 16 14 8 10 7 8 5 5 7 6 7 10 10 8 7 7 7 4 4 2 4
8 4 6 4 6 7 6 9 6 7 18 24 22 22 17 18 12 4 6 10 17 18 19 19 20 20 19 18 16 15 15 10 8 7 7 7 7 6 9 11 11 8 7 7 7 5 5 5 4
2 2 1 1 1 4 6 9 8 3 17 23 30 26 22 18 21 17 12 7 12 18 18 20 19 21 19 19 17 16 15 12 8 9 8 7 6 7 10 11 9 9 9 8 7 7 6 6 6
11 3 0 3 8 3 3 10 11 12 18 6 10 21 26 24 17 17 17 13 16 14 20 21 20 22 21 19 18 17 16 15 14 9 10 10 7 6 8 10 11 9 8 7 8 7 6 7 7
Wind_Direction
178 188 208 239 355 201 252 166 212 133 77 46 93 112 111 54 132 172 137 141 140 131 135 150 139 134 127 120 119 117 113 110 113 108 104 102 98 92 98 91 91 94 83 89 91 86 92 88 91
191 190 229 273 254 211 286 119 90 346 102 108 67 89 79 95 78 121 134 144 136 132 140 134 142 131 124 122 124 120 116 111 109 110 108 104 99 96 89 89 83 90 92 89 86 87 90 90 89
238 261 161 262 255 234 59 82 304 282 121 105 111 51 64 103 112 134 136 141 139 136 137 143 140 135 133 129 130 126 117 117 118 116 112 106 104 98 96 98 95 92 91 93 96 92 94 92 95
210 133 306 240 245 286 136 142 161 8 63 96 115 70 83 117 133 135 148 141 145 125 125 136 144 135 127 128 119 120 123 126 126 122 115 105 110 104 103 101 100 97 101 94 97 99 97 95 96
242 113 265 264 298 234 64 178 133 191 86 94 105 112 87 86 117 146 154 146 122 121 128 137 134 130 132 127 124 129 131 127 123 117 115 116 109 109 114 107 101 97 92 91 92 94 109 105 99
20 202 255 307 306 161 124 176 148 104 106 102 103 105 87 123 138 157 150 129 127 130 128 128 131 128 129 129 129 127 130 126 126 124 116 112 116 118 111 109 105 97 94 92 95 99 105 111 116
213 181 247 215 270 272 124 194 188 118 115 113 139 105 129 146 156 152 149 128 130 126 125 128 131 135 134 132 130 134 133 133 133 127 125 119 121 117 111 110 109 108 101 97 103 102 101 104 78
212 216 271 324 284 258 165 228 103 96 58 120 137 136 157 170 161 152 148 131 126 130 136 134 132 128 124 130 132 137 143 141 139 133 135 132 129 123 117 112 117 112 108 112 118 95 68 51 55
220 267 281 291 36 71 117 226 164 118 139 181 185 155 153 169 160 137 140 132 135 141 144 143 152 149 133 142 143 145 151 150 144 145 151 142 138 120 121 119 120 105 99 95 107 97 60 38 30
219 230 255 194 144 145 149 257 163 146 165 207 144 140 158 167 157 150 143 143 145 152 157 153 151 146 149 148 145 145 155 157 147 159 166 170 173 155 130 126 121 108 109 109 101 78 86 46 40
241 233 249 268 182 149 167 229 175 156 182 174 157 153 165 169 168 151 146 151 160 164 160 158 154 155 157 149 152 148 165 185 151 156 173 200 138 143 128 133 111 93 126 143 100 359 14 24 77
240 243 246 259 125 128 127 100 101 113 168 266 152 155 164 175 172 151 154 162 165 164 148 148 145 150 143 152 162 163 172 180 176 137 147 35 141 132 137 155 116 121 174 80 138 203 294 10 33
243 250 260 163 132 117 172 150 152 166 172 183 178 156 167 171 177 153 168 174 147 134 139 138 143 142 132 135 171 159 109 144 206 139 127 117 38 165 128 129 172 213 155 168 153 185 314 315 263
252 255 256 254 151 144 153 151 142 182 178 205 164 161 168 172 186 175 177 173 139 140 143 146 153 136 125 137 175 136 159 211 164 135 129 184 40 141 133 168 167 175 170 161 164 177 196 250 271
275 293 295 274 162 135 136 114 210 151 174 161 160 161 173 177 189 196 184 157 137 140 138 136 136 133 131 151 139 192 152 147 153 149 152 147 169 135 96 135 238 146 97 2 47 139 206 212 234
285 292 289 286 181 184 147 114 109 95 131 158 156 170 185 179 197 202 203 149 138 140 143 150 150 155 157 136 179 142 148 119 138 145 151 173 148 90 78 116 271 9 110 223 76 75 162 144 189
291 253 248 260 254 157 156 120 148 139 168 172 167 178 191 191 199 203 198 141 140 145 149 151 146 154 153 140 173 139 81 105 161 131 143 164 117 128 117 98 42 140 145 53 52 65 118 153 152
248 244 238 251 252 179 185 124 159 165 174 176 177 179 184 202 202 204 168 149 140 153 155 142 153 149 151 152 138 94 134 197 138 136 156 151 134 127 124 169 129 106 106 75 166 123 233 169 169
263 278 281 258 245 187 180 151 166 176 166 179 223 203 181 196 208 200 165 147 146 150 153 142 148 151 139 145 144 131 152 164 107 165 156 169 152 153 152 148 109 179 151 183 324 120 191 167 131
250 264 277 287 280 186 137 155 166 172 175 173 230 211 174 186 204 187 165 151 152 157 160 144 148 154 150 153 166 157 168 172 164 156 178 172 150 161 140 177 180 186 162 156 157 116 62 50 154
245 239 268 269 304 17 85 68 168 189 180 158 28 39 206 177 193 193 174 162 157 158 164 155 155 161 157 169 169 181 149 71 92 166 151 214 157 166 167 181 154 145 142 167 131 154 96 124 305
253 257 264 270 308 156 239 217 215 161 124 147 109 7 280 224 189 186 187 168 169 168 163 155 158 164 162 174 181 181 179 160 175 167 189 191 171 156 144 156 159 158 188 156 190 217 147 124 154
252 271 272 286 263 311 285 300 225 152 149 186 110 284 260 265 194 191 191 183 172 168 169 162 160 169 175 174 185 179 182 195 145 171 175 174 187 156 155 160 157 152 141 176 185 232 134 113 154
221 259 285 313 338 272 263 144 265 167 186 171 176 197 220 226 203 189 188 181 167 171 172 170 162 175 177 182 179 182 187 201 162 170 169 170 180 168 161 158 159 170 172 192 204 191 119 155 111
243 277 301 327 279 255 274 269 221 200 176 179 193 204 198 214 211 185 184 183 171 176 178 179 173 175 181 186 190 190 192 192 189 164 167 163 173 170 175 160 168 168 169 180 191 180 115 207 123
231 191 169 214 226 259 246 257 262 234 181 190 199 194 186 198 190 185 182 186 182 179 180 183 185 180 182 185 193 193 201 201 195 179 171 174 182 191 172 173 166 174 176 173 183 193 198 193 214
274 254 216 255 280 316 265 277 282 251 172 186 182 172 166 148 92 40 204 188 190 179 187 186 186 189 185 188 189 191 193 204 186 204 190 188 172 184 175 175 174 176 181 174 173 191 225 228 217
188 262 17 255 245 257 277 292 255 259 233 178 177 183 165 142 142 77 36 289 203 191 187 188 186 191 190 190 195 195 195 197 189 187 201 200 198 167 166 170 176 178 181 181 174 193 216 196 214
349 335 69 145 229 237 247 272 252 153 32 193 184 183 167 161 153 150 230 268 300 208 188 191 183 187 194 196 194 198 199 201 188 190 201 200 206 151 165 172 164 176 180 188 181 195 213 198 213
297 265 107 149 280 239 207 275 346 22 29 337 194 191 174 166 154 158 188 226 246 238 199 191 189 187 191 193 197 197 198 200 204 198 195 196 206 174 174 178 181 182 189 182 182 197 201 203 208